Montreal-Pierre Elliott T, Canada

6:39 PM EST on February 05, 2016 (GMT -0500)
Montreal International (Dorval)

Weather History for CYUL - February, 2014

Change the Weather History Date:

Sunday, February 16, 2014

  Actual Average Record
Temperature  
Mean Temperature 8 °F -  
Max Temperature 14 °F 24 °F 39 °F (2002)
Min Temperature 3 °F 9 °F -14 °F (2003)
Degree Days  
Heating Degree Days 56    
Moisture  
Dew Point 1 °F    
Average Humidity 66    
Maximum Humidity 85    
Minimum Humidity 43    
Precipitation  
Precipitation 0.00 in - - ()
Sea Level Pressure  
Sea Level Pressure 29.89 in    
Wind  
Wind Speed 11 mph ()    
Max Wind Speed 22 mph    
Max Gust Speed 29 mph    
Visibility 14.3 miles    
Events Snow    
Averages and records for this station are not official NWS values.
T = Trace of Precipitation, MM = Missing Value Source: Averaged Metar Reports

Daily Weather History Graph

Daily Weather History Graph

Search for Another Location

Airport or City:

Trip Planner

Search our weather history database for the weather conditions in past years. The results will help you decide how hot, cold, wet, or windy it might be!

Date:

Astronomy

Feb. 16, 2014 Rise Set
Actual Time 6:55 AM EST 5:23 PM EST
Civil Twilight 6:24 AM EST 5:54 PM EST
Nautical Twilight 5:50 AM EST 6:28 PM EST
Astronomical Twilight 5:15 AM EST 7:02 PM EST
Moon 7:25 PM EST (2/16) 7:16 AM EST (2/16)
Length of Visible Light 11h 29m
Length of Day
10h 28m
Full, 97% of the Moon is Illuminated
Feb 16
Full
Feb 22
Last Quarter
Mar 1
New
Mar 8
First Quarter
Mar 16
Full

Hourly Weather History & Observations

Time (EST) Temp. Windchill Dew Point Humidity Pressure Visibility Wind Dir Wind Speed Gust Speed Precip Events Conditions
12:00 AM 12.2 °F 1.7 °F 8.6 °F 85% 29.81 in 15.0 mi West 6.9 mph - N/A   Partly Cloudy
1:00 AM 14 °F - 9 °F 73% 29.81 in 15 mi West 10.4 mph - -   Partly Cloudy
1:00 AM 14.0 °F 2.0 °F 8.6 °F 79% 29.81 in 15.0 mi WNW 9.2 mph - N/A   Overcast
1:14 AM 14.0 °F 0.5 °F 8.6 °F 79% 29.81 in 8.0 mi WNW 11.5 mph - N/A Snow Light Snow Showers
2:00 AM 12.2 °F -1.8 °F 6.8 °F 79% 29.80 in 10.0 mi West 11.5 mph - N/A Snow Light Snow Showers
3:00 AM 10.4 °F -3.3 °F 5.0 °F 79% 29.80 in 15.0 mi West 10.4 mph - N/A Snow Light Snow Showers
4:00 AM 10.4 °F -5.4 °F 5.0 °F 79% 29.79 in 15.0 mi West 13.8 mph - N/A Snow Light Snow Showers
4:24 AM 8.6 °F -7.7 °F 3.2 °F 79% 29.80 in 15.0 mi West 13.8 mph - N/A   Mostly Cloudy
5:00 AM 6.8 °F -10.0 °F 1.4 °F 79% 29.81 in 15.0 mi West 13.8 mph - N/A   Partly Cloudy
6:00 AM 5.0 °F -12.3 °F -0.4 °F 78% 29.81 in 15.0 mi West 13.8 mph - N/A   Partly Cloudy
7:00 AM 4 °F - -2 °F 65% 29.83 in 28 mi West 12.7 mph - -   Partly Cloudy
7:00 AM 3.2 °F -14.6 °F -2.2 °F 78% 29.83 in 30.0 mi West 13.8 mph - N/A   Partly Cloudy
8:00 AM 5.0 °F -13.0 °F -2.2 °F 72% 29.85 in 30.0 mi West 15.0 mph 20.7 mph N/A   Partly Cloudy
9:00 AM 6.8 °F -11.3 °F -2.2 °F 67% 29.86 in 30.0 mi West 16.1 mph - N/A   Partly Cloudy
10:00 AM 8.6 °F -10.5 °F -2.2 °F 62% 29.87 in 30.0 mi West 19.6 mph - N/A   Partly Cloudy
11:00 AM 8.6 °F -10.0 °F -0.4 °F 67% 29.88 in 30.0 mi West 18.4 mph 25.3 mph N/A   Partly Cloudy
12:00 PM 12.2 °F -5.3 °F 1.4 °F 62% 29.88 in 30.0 mi West 18.4 mph 27.6 mph N/A   Partly Cloudy
1:00 PM 13 °F - 1 °F 44% 29.88 in 28 mi WSW 17.3 mph - -   Clear
1:00 PM 14.0 °F -3.0 °F 1.4 °F 57% 29.88 in 30.0 mi WSW 18.4 mph - N/A   Partly Cloudy
2:00 PM 14.0 °F -3.4 °F 1.4 °F 57% 29.88 in 30.0 mi WSW 19.6 mph 28.8 mph N/A   Partly Cloudy
3:00 PM 14.0 °F -4.3 °F 3.2 °F 62% 29.88 in 30.0 mi WSW 21.9 mph 28.8 mph N/A   Partly Cloudy
4:00 PM 14.0 °F -2.5 °F 1.4 °F 57% 29.90 in 30.0 mi WSW 17.3 mph - N/A   Partly Cloudy
5:00 PM 12.2 °F -2.5 °F -0.4 °F 57% 29.93 in 30.0 mi SW 12.7 mph - N/A   Partly Cloudy
6:00 PM 10.4 °F -4.8 °F -0.4 °F 62% 29.97 in 15.0 mi WSW 12.7 mph - N/A   Partly Cloudy
7:00 PM 10 °F - -2 °F 43% 29.99 in 15 mi WSW 11.5 mph - -   Clear
7:00 PM 10.4 °F -4.1 °F -2.2 °F 57% 29.99 in 15.0 mi WSW 11.5 mph - N/A   Partly Cloudy
8:00 PM 8.6 °F -5.5 °F -2.2 °F 62% 30.01 in 15.0 mi WSW 10.4 mph - N/A   Partly Cloudy
9:00 PM 6.8 °F -7.8 °F -4.0 °F 61% 30.04 in 15.0 mi WSW 10.4 mph - N/A   Clear
10:00 PM 8.6 °F -2.6 °F -5.8 °F 52% 30.06 in 15.0 mi West 6.9 mph - N/A   Clear
11:00 PM 6.8 °F -3.5 °F -5.8 °F 56% 30.10 in 15.0 mi West 5.8 mph - N/A   Clear